TimeEDT,TemperatureF,Dew PointF,Humidity,Sea Level PressureIn,VisibilityMPH,Wind Direction,Wind SpeedMPH,Gust SpeedMPH,PrecipitationIn,Events,Conditions,WindDirDegrees,DateUTC
12:45 AM,55.4,51.8,88,30.01,10.0,SE,4.6,-,N/A,,Partly Cloudy,140,2013-05-09 04:45:00
1:45 AM,53.6,51.8,94,30.00,10.0,East,4.6,-,N/A,,Clear,100,2013-05-09 05:45:00
2:45 AM,51.8,51.8,100,29.98,10.0,East,5.8,-,N/A,,Scattered Clouds,80,2013-05-09 06:45:00
4:45 AM,53.6,53.6,100,29.97,6.0,SE,6.9,-,N/A,,Overcast,130,2013-05-09 08:45:00
5:45 AM,53.6,53.6,100,29.97,4.0,ESE,5.8,-,N/A,,Overcast,120,2013-05-09 09:45:00
6:45 AM,53.6,53.6,100,29.98,3.0,Calm,Calm,-,N/A,,Overcast,0,2013-05-09 10:45:00
7:45 AM,55.4,53.6,94,29.98,3.0,Calm,Calm,-,N/A,,Overcast,0,2013-05-09 11:45:00
8:45 AM,55.4,53.6,94,29.98,4.0,Calm,Calm,-,N/A,,Overcast,0,2013-05-09 12:45:00
9:45 AM,57.2,55.4,94,29.97,4.0,Calm,Calm,-,N/A,,Overcast,0,2013-05-09 13:45:00
10:45 AM,59.0,55.4,88,29.97,3.0,Calm,Calm,-,N/A,Rain,Light Rain,0,2013-05-09 14:45:00
12:45 PM,57.2,57.2,100,29.96,3.0,NW,5.8,-,N/A,Rain,Light Rain,310,2013-05-09 16:45:00
1:45 PM,60.8,55.4,82,29.95,5.0,NW,5.8,-,N/A,,Overcast,310,2013-05-09 17:45:00
2:45 PM,62.6,55.4,77,29.93,10.0,West,11.5,-,N/A,,Mostly Cloudy,280,2013-05-09 18:45:00
3:45 PM,64.4,55.4,73,29.91,15.0,Calm,Calm,-,N/A,,Mostly Cloudy,0,2013-05-09 19:45:00
4:45 PM,66.2,55.4,68,29.90,15.0,Calm,Calm,-,N/A,,Mostly Cloudy,0,2013-05-09 20:45:00
5:45 PM,66.2,55.4,68,29.91,15.0,West,6.9,-,N/A,,Mostly Cloudy,270,2013-05-09 21:45:00
6:45 PM,64.4,55.4,73,29.92,15.0,WNW,8.1,-,N/A,,Mostly Cloudy,290,2013-05-09 22:45:00
7:45 PM,57.2,55.4,94,29.92,15.0,West,5.8,-,N/A,,Mostly Cloudy,270,2013-05-09 23:45:00
8:45 PM,57.2,55.4,94,29.94,10.0,Calm,Calm,-,N/A,,Mostly Cloudy,0,2013-05-10 00:45:00
9:45 PM,57.2,55.4,94,29.96,10.0,Calm,Calm,-,N/A,,Mostly Cloudy,0,2013-05-10 01:45:00
10:45 PM,53.6,53.6,100,29.96,10.0,Calm,Calm,-,N/A,,Mostly Cloudy,0,2013-05-10 02:45:00
11:45 PM,51.8,51.8,100,29.96,10.0,Calm,Calm,-,N/A,,Mostly Cloudy,0,2013-05-10 03:45:00